Theta_e
348 345 346 346 348 349 348 347 352 353 354 354 355 352 352 352 352 350 351 351 350 352
350 348 348 349 349 351 351 353 354 354 354 354 353 354 353 350 350 349 352 350 350 351
350 349 350 351 350 348 351 351 354 353 353 352 353 354 352 350 351 350 350 351 347 350
351 350 351 351 350 351 352 354 353 353 351 352 353 353 351 348 350 348 348 349 349 347
350 352 349 350 350 352 351 353 354 352 352 352 353 351 351 351 350 349 346 346 348 348
349 350 349 348 351 352 351 351 354 354 352 351 352 352 352 350 350 351 350 352 349 349
343 345 347 350 349 351 351 351 351 350 352 353 353 353 352 353 351 352 351 352 352 353
341 342 347 347 349 350 351 351 350 351 351 352 342 335 334 341 352 350 350 350 353 354
342 339 345 347 346 347 348 349 350 349 347 338 334 327 329 334 345 350 348 348 350 349
339 338 343 347 347 348 344 344 346 345 336 327 322 320 321 329 340 348 348 349 350 350
340 339 343 344 343 341 343 341 343 338 331 323 317 316 318 324 337 347 345 345 341 336
341 337 337 337 339 340 338 337 336 333 327 318 311 314 318 334 345 344 336 329 335 329
340 338 336 337 338 337 334 331 327 323 318 316 310 312 314 322 331 333 330 324 319 320
336 335 335 336 334 330 330 327 323 318 319 316 311 309 310 312 317 320 333 328 321 317
Wind_Speed
8 5 4 6 4 5 5 4 4 6 5 5 4 3 1 1 3 3 1 4 2 2
6 6 5 6 4 4 5 6 6 6 6 4 4 4 3 1 2 3 3 3 5 1
6 5 4 4 4 2 2 3 6 6 6 6 4 5 5 2 1 2 2 2 5 5
6 7 5 4 4 1 2 5 6 6 6 5 4 4 3 2 1 2 0 1 1 3
7 6 6 5 6 4 3 3 6 4 4 4 3 4 4 4 1 3 3 5 2 3
7 6 7 6 6 5 5 6 5 6 6 5 4 3 4 3 2 3 4 5 4 5
5 3 1 5 5 7 6 5 5 5 5 5 5 2 3 4 4 4 4 4 4 5
4 1 4 6 6 5 6 6 5 5 4 3 7 5 5 5 5 6 5 4 5 3
5 7 2 3 9 5 1 4 5 5 3 6 6 6 6 6 5 4 1 4 4 6
8 8 8 5 2 6 6 3 3 7 7 7 4 8 5 3 5 2 3 2 4 6
5 4 5 6 4 1 4 1 5 8 7 6 4 9 9 7 4 2 6 6 8 7
5 5 5 6 4 4 6 6 6 7 6 6 6 10 9 5 4 7 8 6 6 7
6 6 7 5 5 4 6 8 6 6 7 7 7 12 14 9 5 6 6 5 6 9
5 6 5 6 5 5 6 6 7 7 5 6 6 9 15 12 6 3 6 4 3 3
Wind_Direction
167 176 191 203 171 208 213 212 182 174 176 177 172 210 316 38 356 355 293 53 126 84
183 169 209 223 195 193 205 187 184 170 181 209 191 206 190 143 295 327 319 351 3 89
179 172 185 172 187 192 101 169 172 183 188 192 216 207 166 180 31 328 268 47 10 4
181 174 194 195 211 250 150 144 170 177 188 205 201 175 162 179 272 338 195 343 280 311
171 178 186 208 200 197 195 175 176 198 207 210 215 211 202 202 224 218 258 259 244 249
188 181 198 214 206 200 187 192 198 184 208 225 221 223 196 200 238 235 250 234 219 237
89 33 266 222 218 192 189 190 206 211 200 206 206 211 237 212 228 256 261 307 268 232
186 219 342 349 321 208 186 187 192 206 223 194 75 41 9 323 249 224 252 273 284 15
201 200 195 305 297 297 71 190 178 213 50 83 73 12 18 331 291 232 226 294 311 83
171 182 202 131 295 320 279 221 173 91 97 77 39 359 351 310 258 219 167 97 41 69
129 140 125 135 143 183 270 39 110 99 97 91 33 358 343 308 251 85 81 75 85 94
123 112 100 108 117 131 110 71 82 96 97 81 33 357 17 28 82 100 82 68 68 87
125 119 122 109 84 92 99 111 107 100 96 85 56 22 38 37 59 84 100 80 70 55
117 119 129 118 113 103 94 101 102 97 89 91 71 42 45 37 56 39 127 96 64 35